XE3ADC-4 Weather Reports


time (UTC)temp
F
wind
direction
speed
knots
gust
knots
rain 1hr
in
rain 24hr
in
rain mn
in
humidity
%
barometer
mb
20260507044602 90 106 1.7 3.5 0.00 0.00 0.00 6 1009.6
20260507041602 90 72 2.6 4.3 0.00 0.00 0.00 6 1009.4
20260507034602 91 27 1.7 2.6 0.00 0.00 0.00 6 1009.4
20260507031602 91 70 3.5 5.2 0.00 0.00 0.00 6 1009.3
20260507024602 92 39 2.6 5.2 0.00 0.00 0.00 6 1008.9
20260507021602 92 64 3.5 5.2 0.00 0.00 0.00 6 1008.6
20260507014602 93 68 2.6 5.2 0.00 0.00 0.00 6 1008.2
20260507011602 95 74 3.5 6.1 0.00 0.00 0.00 5 1007.9
20260507004603 96 49 3.5 4.3 0.00 0.00 0.00 5 1007.7
20260507001603 98 42 3.5 5.2 0.00 0.00 0.00 6 1007.4
20260506234603 100 45 3.5 5.2 0.00 0.00 0.00 6 1007.2
20260506231603 103 18 3.5 6.1 0.00 0.00 0.00 5 1007.2
20260506224603 104 19 5.2 7.0 0.00 0.00 0.00 5 1006.9
20260506221603 104 26 4.3 6.1 0.00 0.00 0.00 5 1007.1
20260506211603 106 51 4.3 7.0 0.00 0.00 0.00 5 1007.4
20260506204603 104 57 3.5 7.0 0.00 0.00 0.00 5 1007.8
20260506201603 104 72 4.3 6.1 0.00 0.00 0.00 5 1008.4
20260506194603 104 82 4.3 5.2 0.00 0.00 0.00 5 1008.8
20260506191603 103 53 5.2 7.0 0.00 0.00 0.00 5 1009.6
20260506184603 103 58 5.2 7.0 0.00 0.00 0.00 5 1010.2
20260506181603 102 26 3.5 5.2 0.00 0.00 0.00 6 1010.4
20260506174603 101 18 3.5 5.2 0.00 0.00 0.00 6 1011.0
20260506171603 100 34 2.6 4.3 0.00 0.00 0.00 6 1011.2
20260506164603 98 69 1.7 4.3 0.00 0.00 0.00 6 1011.4
20260506161603 97 29 2.6 4.3 0.00 0.00 0.00 6 1011.7
20260506154603 99 89 2.6 4.3 0.00 0.00 0.00 6 1011.9
20260506151603 94 51 2.6 4.3 0.00 0.00 0.00 6 1011.9
20260506144603 91 75 4.3 7.0 0.00 0.00 0.00 7 1012.0
20260506141603 87 81 5.2 7.0 0.00 0.00 0.00 7 1012.0
20260506134603 87 83 4.3 7.0 0.00 0.00 0.00 7 1011.9
20260506131603 84 91 4.3 7.0 0.00 0.00 0.00 8 1012.0
20260506124603 83 63 3.5 5.2 0.00 0.00 0.00 8 1011.8
20260506121603 81 83 2.6 3.5 0.00 0.00 0.00 8 1011.5
20260506114603 81 59 1.7 3.5 0.00 0.00 0.00 8 1011.3
20260506111602 81 61 2.6 5.2 0.00 0.00 0.00 8 1011.1
20260506104602 82 128 0.9 1.7 0.00 0.00 0.00 8 1010.8
20260506101602 82 91 2.6 4.3 0.00 0.00 0.00 8 1010.6
20260506094602 83 340 1.7 2.6 0.00 0.00 0.00 8 1010.4
20260506091602 83 28 1.7 2.6 0.00 0.00 0.00 8 1010.2
20260506084602 83 95 1.7 3.5 0.00 0.00 0.00 8 1010.1
20260506081602 83 55 2.6 4.3 0.00 0.00 0.00 9 1010.0
20260506071602 84 38 3.5 5.2 0.00 0.00 0.00 9 1010.1
20260506061602 85 74 3.5 5.2 0.00 0.00 0.00 8 1010.4